Total_Precipitation_Accumulation
1.20 1.26 1.32 1.41 1.48 1.56 1.57 1.56 1.55 1.55 1.58 1.60 1.68 1.72 1.74 1.79 1.97 2.09 1.99 2.22 2.31 2.32 2.11 2.03 1.96 1.94 1.93 1.78 1.80 1.91 1.99 2.20 2.15 1.72 1.63 1.75 1.85 1.78 1.85 1.80 1.74 1.77 1.60
1.15 1.32 1.40 1.52 1.56 1.51 1.50 1.68 1.73 1.71 1.70 1.71 1.77 1.88 1.86 1.89 2.00 1.97 1.85 1.94 2.09 2.26 2.46 2.54 2.30 2.22 2.18 2.01 1.97 1.93 1.96 2.14 2.15 2.01 1.90 1.94 1.97 1.90 1.89 1.75 1.51 1.44 1.47
1.09 1.27 1.48 1.55 1.60 1.67 1.79 1.94 2.04 1.98 1.95 1.96 2.02 1.98 2.00 2.04 2.02 1.93 1.94 1.97 2.04 2.12 2.34 2.55 2.53 2.63 2.38 2.32 2.20 2.08 2.02 1.98 2.13 2.03 1.89 2.08 2.08 2.06 1.97 1.66 1.54 1.54 1.39
1.37 1.49 1.60 1.78 1.89 1.94 1.92 2.02 2.06 2.09 2.13 2.13 2.17 2.11 2.09 2.12 2.11 2.09 2.07 2.04 2.10 2.09 2.11 2.21 2.32 2.58 2.56 2.55 2.35 2.31 2.31 2.28 2.35 2.25 2.13 2.23 2.40 2.43 2.27 1.90 1.77 1.67 1.53
1.71 1.79 1.81 1.88 1.98 2.11 2.25 2.29 2.29 2.29 2.24 2.38 2.35 2.26 2.24 2.25 2.09 2.20 2.38 2.35 2.41 2.23 2.14 2.10 2.08 2.30 2.37 2.37 2.14 2.22 2.37 2.41 2.43 2.38 2.35 2.41 2.46 2.57 2.27 2.02 1.87 1.83 1.74
2.18 2.31 2.43 2.49 2.55 2.60 2.64 2.66 2.70 2.66 2.60 2.52 2.40 2.42 2.41 2.20 2.33 2.38 2.29 2.34 2.51 2.51 2.39 2.31 2.17 2.10 2.09 2.13 2.16 2.19 2.27 2.25 2.27 2.30 2.26 2.29 2.35 2.45 2.56 2.40 2.17 1.99 1.81
2.32 2.43 2.57 2.68 2.80 2.90 2.92 2.91 2.79 2.73 2.64 2.51 2.51 2.55 2.50 2.53 2.49 2.25 2.10 2.11 2.17 2.26 2.33 2.31 2.05 1.90 2.06 1.98 2.13 2.15 2.00 1.93 1.90 1.99 2.00 2.03 2.42 2.69 2.94 2.66 2.43 2.22 1.95
2.43 2.49 2.56 2.62 2.72 2.86 3.02 2.95 2.79 2.71 2.65 2.59 2.55 2.44 2.37 2.29 2.29 2.07 2.05 1.95 1.90 1.85 1.95 2.06 2.00 1.91 1.92 1.99 1.93 1.72 1.57 1.56 1.58 1.50 1.54 1.75 2.13 2.64 2.92 2.91 2.85 2.60 2.29
2.18 2.33 2.33 2.45 2.65 2.75 2.79 2.80 2.83 2.77 2.58 2.44 2.32 2.26 2.21 2.25 2.41 2.17 2.05 1.88 1.88 1.75 1.73 1.73 1.76 1.66 1.75 1.82 1.72 1.52 1.40 1.34 1.36 1.37 1.36 1.51 1.77 2.10 2.48 2.65 2.56 2.37 2.02
2.17 2.35 2.49 2.58 2.73 2.78 2.83 2.92 2.93 2.86 2.81 2.76 2.60 2.46 2.35 2.32 2.48 2.22 2.04 1.86 1.88 1.83 1.82 1.81 1.89 1.68 1.59 1.51 1.45 1.45 1.27 1.17 1.26 1.24 1.21 1.24 1.34 1.60 2.01 2.10 2.10 2.13 1.92
2.20 2.28 2.39 2.54 2.69 2.91 3.10 3.04 3.00 2.94 2.83 2.63 2.44 2.30 2.25 2.24 2.22 1.99 1.84 1.65 1.65 1.70 1.61 1.56 1.61 1.63 1.43 1.26 1.25 1.23 1.16 1.17 1.21 1.15 1.07 1.05 1.16 1.30 1.48 1.76 1.90 1.88 1.79
2.27 2.34 2.39 2.54 2.59 2.67 2.81 2.79 2.73 2.72 2.70 2.62 2.56 2.48 2.38 2.22 2.00 1.76 1.61 1.50 1.52 1.54 1.63 1.65 1.69 1.72 1.47 1.31 1.16 1.05 1.07 1.03 1.01 1.06 1.02 0.98 1.03 1.12 1.33 1.60 1.86 1.91 1.80
2.24 2.36 2.50 2.57 2.60 2.70 2.82 2.83 2.74 2.64 2.57 2.46 2.38 2.20 2.17 2.19 2.10 1.84 1.59 1.48 1.47 1.43 1.63 1.92 1.93 1.86 1.65 1.37 1.26 1.25 1.14 1.00 1.00 1.02 0.99 0.95 0.98 1.11 1.36 1.66 1.89 2.06 1.99
2.19 2.24 2.37 2.50 2.61 2.74 2.75 2.64 2.50 2.33 2.24 2.17 2.08 1.98 1.96 2.01 1.90 1.82 1.69 1.59 1.56 1.49 1.56 1.82 1.95 1.96 1.85 1.66 1.56 1.45 1.22 1.12 1.17 1.16 1.16 1.20 1.29 1.41 1.55 1.68 1.86 2.01 2.06
2.15 2.20 2.18 2.21 2.28 2.40 2.45 2.41 2.28 2.15 2.04 1.97 1.86 1.84 1.83 1.82 1.83 1.83 1.67 1.55 1.50 1.55 1.67 1.88 2.02 2.12 2.13 2.05 1.94 1.83 1.68 1.50 1.37 1.32 1.38 1.39 1.43 1.51 1.56 1.70 1.91 2.00 1.94
2.19 2.06 1.96 1.88 1.87 1.90 1.90 1.96 2.09 1.97 1.96 1.83 1.71 1.64 1.60 1.64 1.66 1.61 1.50 1.42 1.46 1.57 1.62 1.74 1.97 2.15 2.21 2.29 2.31 2.20 1.98 1.78 1.63 1.60 1.56 1.53 1.57 1.58 1.62 1.77 1.98 2.08 1.94
2.08 1.94 1.83 1.77 1.76 1.71 1.68 1.68 1.79 1.84 1.80 1.72 1.71 1.59 1.45 1.49 1.46 1.41 1.39 1.37 1.39 1.44 1.47 1.58 1.68 1.79 1.96 2.17 2.27 2.24 2.03 1.91 1.93 1.89 1.80 1.76 1.78 1.79 1.80 1.90 2.08 2.18 2.12
1.92 1.98 1.83 1.72 1.76 1.77 1.73 1.70 1.73 1.77 1.77 1.68 1.67 1.62 1.40 1.28 1.26 1.28 1.31 1.26 1.15 1.16 1.23 1.38 1.53 1.66 1.82 2.08 2.23 2.25 2.18 2.10 2.11 2.14 2.10 2.05 2.03 1.98 1.90 1.86 1.99 2.11 2.14
1.75 1.78 1.79 1.78 1.76 1.77 1.78 1.70 1.64 1.62 1.64 1.56 1.51 1.58 1.52 1.34 1.26 1.28 1.30 1.18 1.09 1.09 1.18 1.22 1.28 1.44 1.62 1.86 2.09 2.25 2.24 2.14 2.07 2.11 2.10 2.02 2.01 2.02 1.92 1.84 1.90 2.07 2.15
1.66 1.81 1.74 1.73 1.74 1.70 1.75 1.75 1.71 1.70 1.67 1.58 1.50 1.51 1.52 1.40 1.30 1.39 1.46 1.42 1.33 1.28 1.27 1.28 1.37 1.50 1.65 1.86 2.06 2.16 2.18 2.15 2.09 2.08 2.05 1.99 1.96 1.94 1.80 1.74 1.76 1.84 1.89
1.52 1.58 1.65 1.52 1.54 1.62 1.60 1.63 1.66 1.68 1.64 1.56 1.47 1.48 1.44 1.32 1.39 1.48 1.57 1.60 1.52 1.43 1.39 1.39 1.43 1.51 1.67 1.86 2.00 2.11 2.13 2.14 2.15 2.11 2.05 1.97 1.93 1.93 1.88 1.84 1.80 1.83 1.84
1.51 1.41 1.42 1.44 1.57 1.62 1.65 1.67 1.71 1.69 1.65 1.64 1.62 1.63 1.60 1.39 1.44 1.52 1.57 1.64 1.67 1.66 1.61 1.58 1.55 1.57 1.64 1.78 1.94 2.05 2.06 2.04 2.05 2.09 2.06 1.99 1.96 1.97 2.01 2.00 1.95 1.93 1.94
1.58 1.54 1.50 1.48 1.59 1.72 1.75 1.77 1.80 1.78 1.75 1.74 1.70 1.68 1.67 1.58 1.59 1.67 1.72 1.76 1.76 1.73 1.69 1.66 1.63 1.65 1.68 1.70 1.77 1.88 1.93 1.91 1.85 1.88 1.96 1.92 1.87 1.86 1.90 1.92 1.91 1.91 1.88
1.44 1.52 1.53 1.51 1.55 1.57 1.60 1.62 1.62 1.61 1.62 1.63 1.66 1.73 1.75 1.76 1.79 1.84 1.78 1.72 1.67 1.62 1.62 1.59 1.57 1.57 1.61 1.65 1.65 1.61 1.65 1.72 1.67 1.65 1.70 1.76 1.77 1.76 1.79 1.78 1.83 1.88 1.93
1.28 1.43 1.50 1.47 1.44 1.47 1.45 1.39 1.37 1.44 1.55 1.65 1.68 1.71 1.76 1.78 1.77 1.72 1.63 1.55 1.47 1.49 1.51 1.49 1.46 1.40 1.37 1.39 1.40 1.40 1.54 1.60 1.56 1.52 1.50 1.54 1.57 1.63 1.67 1.69 1.73 1.84 1.96
1.24 1.35 1.41 1.41 1.42 1.45 1.49 1.43 1.36 1.40 1.50 1.54 1.58 1.58 1.58 1.60 1.60 1.55 1.47 1.41 1.38 1.37 1.39 1.41 1.35 1.24 1.20 1.20 1.20 1.23 1.24 1.20 1.27 1.39 1.40 1.39 1.44 1.51 1.56 1.59 1.62 1.73 1.83